STARLINK-1174 (45075 NORAD) Tracking and Keplerian Element Data

This shows tracking and keplerian element data for the satellite.

Feedback or suggestion? Click here.




ElementValue
Catalog45075
NameSTARLINK-1174
Epoch Orbit177
Epoch Day52.91667824
Epoch Year2020
RAAN119.4698
Inclination52.9959
Eccentricity0.0001265
Argument of Perigee38.1766
Mean Anonmoly126.7153
Mean Motion15.73178915
Decay Rate0.00121738
L11 45075U 20006AH 20052.91667824 .00121738 00000-0 85987-3 0 9993
L22 45075 52.9959 119.4698 0001265 38.1766 126.7153 15.73178915 1772

Live tracking and technical data element details for STARLINK-1174 (NORAD 45075). STARLINK-1174 can be tracked NOW for your location showing map with azimuth and elevation plus other details from your city location.

Track the satellite on the map from your city or location and see movement details for azimuth, elevation, latitude, longitude, range, height, and movement on the map or in text.







IsCatalogInMostPopularTable: catalog: 45075, numindb: 7
Update: records affected: 1



GetName: 45075 STARLINK-1174

Hit Count: updated at: Wed, 26 Feb 2020 15:08:15 GMT